Theta_e
303 302 302 301 300 300 299 298 298 298 298 298 299 300 301 302 303 299 295 300 295 288 289 294 294 289 290 288 281 286 286 285 283 280 279 277 277 281 280 284 283 281 279 281 282 281 280 293 294 290 295 298 300 301
302 302 302 301 300 300 299 298 298 298 298 298 299 300 301 302 303 303 295 301 301 293 290 295 295 295 294 293 288 289 286 286 286 280 280 280 278 278 280 275 289 281 285 280 283 283 293 295 294 297 300 297 299 301
302 302 301 301 300 300 299 298 298 298 297 298 299 299 300 301 303 302 295 297 297 292 290 290 290 295 298 296 296 287 287 290 288 288 281 281 278 281 275 278 281 286 290 285 286 291 293 295 298 300 299 298 299 302
302 301 301 301 300 300 299 299 299 298 298 298 298 299 300 301 302 302 294 297 296 294 286 287 297 294 298 297 295 294 292 293 290 288 283 281 279 286 279 283 281 284 287 287 287 292 293 296 296 297 298 299 301 302
301 301 301 301 301 300 300 299 299 298 298 297 297 298 299 299 300 300 297 296 297 292 286 287 294 297 298 297 295 294 293 290 286 283 282 282 285 285 285 284 283 291 289 284 282 291 292 293 296 298 297 298 301 301
301 301 300 300 300 300 299 299 299 299 298 297 297 298 299 300 299 296 290 295 297 296 291 284 292 294 296 297 295 293 292 289 287 286 283 284 291 287 283 280 289 292 293 293 291 295 295 297 298 299 299 300 302 302
301 300 300 300 300 300 299 299 299 299 298 297 297 298 299 300 295 290 287 292 298 294 290 284 285 293 297 296 293 291 291 290 286 287 283 284 286 290 287 283 291 293 294 295 296 295 294 297 296 299 300 302 303 303
300 300 300 300 300 300 299 299 299 299 298 298 297 297 298 298 298 291 293 298 297 292 291 283 285 288 294 289 288 292 287 288 286 284 286 286 288 289 285 290 292 293 294 294 295 297 295 297 297 300 303 302 302 301
300 300 299 299 299 299 299 299 299 299 299 298 297 298 296 294 290 290 298 298 297 291 284 287 283 281 294 290 292 289 289 282 288 281 285 287 287 285 289 291 291 293 293 293 295 297 297 297 299 302 303 304 300 301
300 300 299 299 299 299 299 299 299 299 299 298 295 292 286 290 298 297 293 288 288 289 289 285 288 284 289 288 287 287 287 280 279 287 289 286 284 291 293 294 294 294 296 298 295 295 299 301 301 302 302 304 302 302
300 300 299 299 299 299 299 299 299 299 297 294 289 287 292 297 294 289 282 282 281 282 287 287 287 285 291 284 283 287 282 283 279 283 281 279 284 289 293 294 295 297 299 304 302 301 301 301 302 302 302 304 302 302
301 300 300 299 299 299 299 299 299 296 295 295 295 296 294 290 283 278 277 282 281 282 287 287 287 289 289 291 285 286 282 283 278 287 279 279 284 291 294 295 295 298 300 304 305 303 302 302 302 302 304 304 302 303
300 300 300 299 299 299 299 299 299 300 298 296 293 284 284 283 273 277 271 279 280 287 288 288 287 289 289 290 284 286 281 279 287 280 282 282 289 292 294 295 295 297 300 301 303 304 304 305 306 305 305 305 304 303
300 300 300 299 299 299 299 298 299 298 295 287 281 273 278 275 280 282 285 284 288 289 289 288 287 286 288 284 284 282 285 286 279 280 278 284 290 292 294 295 296 295 298 299 300 300 301 304 303 304 304 305 305 304
300 300 300 299 299 299 299 298 298 298 294 285 287 277 280 285 286 290 291 288 289 290 288 287 286 287 284 283 284 284 281 279 281 280 281 290 293 293 293 293 295 296 297 298 299 300 299 301 302 301 304 305 304 300
300 299 298 299 299 299 298 299 295 295 289 287 287 283 287 284 284 286 288 287 291 290 290 289 286 283 283 285 283 281 280 279 281 285 290 293 294 294 294 294 295 297 298 298 299 300 300 300 300 302 303 304 302 300
299 296 299 299 299 298 298 293 291 285 285 286 283 288 287 288 287 287 288 289 291 287 283 284 280 282 287 282 281 284 281 284 288 290 292 293 295 295 296 296 296 296 297 298 299 299 300 301 302 300 300 302 302 304
296 298 299 299 297 295 290 291 288 285 282 285 282 286 287 290 288 288 290 291 288 287 286 283 285 281 279 280 280 286 288 291 292 291 292 293 294 295 294 295 298 297 298 298 299 299 300 301 300 300 301 302 302 302
298 298 298 298 295 291 286 286 289 282 284 286 287 289 289 289 292 292 291 292 291 290 287 285 282 279 279 283 283 285 286 287 287 289 292 295 296 294 293 293 294 297 298 299 299 299 299 299 299 300 301 301 300 301
298 298 298 297 296 288 284 285 290 286 283 286 288 287 287 288 290 290 290 291 290 288 285 281 282 283 284 286 288 287 288 289 288 286 286 289 291 292 292 293 295 296 295 297 300 293 300 300 299 299 299 300 300 299
297 296 296 295 289 292 289 285 285 287 287 285 288 287 286 289 288 288 288 291 287 286 284 286 287 288 290 291 291 290 290 290 287 287 286 286 289 290 291 292 293 293 292 293 297 297 296 299 300 299 299 297 299 299
295 296 286 290 286 287 288 290 287 289 286 286 287 288 285 284 284 286 289 286 285 287 288 288 289 290 290 291 291 292 292 292 291 290 286 287 287 289 290 292 292 292 292 295 297 297 298 299 302 300 297 292 296 297
294 291 286 285 284 284 284 291 285 286 281 283 286 283 283 283 286 290 284 287 287 290 291 291 292 292 291 292 293 292 292 291 289 289 290 290 290 291 292 292 293 292 291 294 298 298 297 295 298 293 294 294 291 290
293 286 284 284 284 281 286 285 286 284 284 283 282 281 283 284 288 284 282 283 286 290 290 290 290 289 290 290 289 290 291 292 290 290 291 291 290 290 292 292 294 294 296 297 298 297 297 291 292 297 288 289 287 287
283 282 284 282 283 282 280 282 282 282 278 282 282 280 281 286 280 280 281 282 285 287 289 290 290 290 288 288 289 290 293 292 290 290 292 293 292 292 291 292 293 294 296 294 290 290 290 287 287 289 290 287 289 289
280 282 282 280 280 279 280 277 278 278 281 280 282 284 284 281 278 277 281 283 285 287 287 289 290 289 289 291 290 289 290 293 293 291 293 295 294 292 291 290 289 291 297 296 292 289 289 289 289 290 289 290 288 288
279 280 284 288 285 285 281 282 283 282 279 277 281 280 279 273 274 281 284 286 286 290 292 295 294 292 290 290 291 292 292 293 293 293 294 295 295 296 295 293 293 295 297 298 294 290 290 289 289 290 290 290 290 288
283 284 279 283 282 284 278 279 279 279 280 282 282 276 276 276 278 284 286 287 289 291 293 294 294 292 291 291 291 290 290 290 291 293 292 293 293 292 293 293 295 289 295 291 288 291 291 291 288 288 289 289 287 287
282 285 285 280 279 281 279 279 281 284 285 284 281 280 281 284 286 286 287 288 292 291 289 289 289 289 290 289 289 289 289 289 287 285 284 286 287 289 289 290 291 291 288 289 286 287 288 289 289 289 289 288 287 287
283 286 281 277 275 276 281 284 283 286 286 286 286 285 284 285 286 287 287 286 286 288 288 289 289 288 288 287 288 285 284 286 287 288 286 286 287 286 285 287 287 287 289 288 288 289 285 286 285 285 285 285 286 286
286 284 281 281 278 283 284 286 286 286 285 285 285 283 282 283 286 286 286 285 286 284 286 286 286 286 285 286 286 285 286 285 286 288 289 289 288 286 287 287 288 287 288 287 287 287 287 287 286 286 285 285 286 286
284 281 279 276 281 284 285 284 284 284 284 284 281 284 283 281 277 282 285 287 287 287 285 285 286 287 286 286 285 286 285 286 282 284 285 288 289 289 289 289 288 286 286 287 287 286 286 285 285 286 286 286 286 286
283 283 284 281 281 282 283 282 280 278 280 279 279 281 281 279 277 282 285 287 286 286 286 284 285 286 285 287 287 287 287 287 287 287 287 287 287 287 288 287 287 287 286 286 287 287 286 286 286 286 285 286 286 286
Wind_Speed
21 20 19 17 15 14 12 12 13 13 14 15 16 17 19 20 19 6 0 5 5 5 5 10 8 8 4 4 3 5 4 6 6 7 4 3 2 3 4 5 3 3 3 3 4 2 1 19 18 8 10 17 16 13
22 20 19 17 16 15 13 11 12 12 13 14 15 17 19 21 21 10 5 5 4 7 4 6 7 8 7 5 2 6 4 4 3 4 4 3 3 4 4 3 4 2 1 1 0 3 7 13 13 16 12 15 18 10
23 21 20 18 16 15 13 11 11 13 13 13 15 16 18 19 19 10 4 4 4 5 4 5 6 5 7 5 3 4 3 3 3 2 2 2 2 3 2 4 5 5 4 2 5 4 11 17 17 12 16 20 27 9
23 22 20 19 17 15 14 12 11 12 12 12 13 14 16 17 18 12 5 5 4 1 6 1 2 5 4 5 7 6 3 2 2 3 2 1 1 2 2 5 5 5 6 4 4 4 11 8 15 17 24 24 24 10
23 22 20 19 17 16 14 12 11 11 11 11 12 12 13 13 14 6 7 7 5 4 5 4 6 4 5 4 6 3 3 5 3 4 2 2 3 3 4 3 2 3 2 2 3 8 5 16 19 24 23 25 21 7
23 22 20 19 18 16 14 12 11 11 10 9 10 11 12 11 4 4 5 5 7 4 4 4 2 5 4 5 4 4 5 4 3 2 2 4 4 2 3 3 4 4 3 2 6 13 13 18 21 25 19 23 14 6
24 23 21 19 17 17 15 13 11 10 8 8 9 11 14 15 8 5 4 3 9 3 4 4 3 3 6 5 2 3 3 2 2 0 1 2 2 2 2 3 11 14 15 15 15 13 13 13 12 22 22 26 8 6
24 22 21 19 17 17 15 13 11 10 7 5 7 7 7 9 11 6 4 6 7 2 2 3 2 3 4 3 1 2 3 1 1 2 3 2 3 2 3 7 15 14 15 14 9 11 15 18 19 20 21 8 7 6
25 23 21 19 18 17 16 13 11 9 6 3 2 4 0 4 5 1 6 10 3 3 2 1 4 3 2 3 4 2 3 0 2 1 2 3 3 2 7 14 15 16 11 15 16 15 15 15 17 18 9 13 6 4
26 24 23 19 19 18 17 14 11 8 4 1 2 5 4 2 1 4 3 5 5 4 2 1 1 2 4 3 1 4 2 2 1 3 1 1 3 4 8 13 14 18 17 13 9 10 6 9 4 8 8 10 1 4
27 25 25 21 20 19 17 15 11 8 1 1 3 3 1 1 1 3 3 4 2 2 1 1 2 3 3 4 2 1 2 2 1 2 3 1 3 6 13 13 19 20 20 16 6 11 10 9 4 6 8 7 6 6
28 26 25 23 22 20 18 16 13 3 1 3 4 4 2 2 3 5 2 1 1 2 1 3 3 2 1 3 2 3 0 4 3 3 4 3 4 10 8 13 20 21 21 15 12 8 6 5 5 5 6 7 4 5
29 27 26 24 22 21 19 16 14 1 3 2 4 5 3 3 6 3 2 2 0 1 1 2 1 3 1 1 2 1 2 4 2 4 1 4 3 7 5 7 16 19 20 16 15 13 9 8 8 6 6 6 4 7
29 28 26 24 23 21 19 15 9 3 2 3 3 3 2 1 3 2 1 5 3 4 2 2 1 3 2 2 2 1 3 2 2 2 2 3 3 6 6 2 7 17 17 17 14 14 11 7 7 7 7 7 7 7
30 29 27 24 24 22 18 12 3 2 2 1 2 2 4 4 3 5 2 4 2 3 1 2 1 3 0 3 1 1 4 2 3 3 4 3 6 4 6 6 6 12 15 14 13 10 11 8 7 7 7 6 6 6
31 27 10 26 25 20 16 8 4 3 3 1 2 1 1 2 2 2 3 3 2 1 1 3 3 1 3 3 2 4 2 2 3 1 2 2 3 6 5 5 6 5 10 12 10 6 8 8 7 6 7 6 5 4
21 3 28 27 25 21 13 4 3 4 2 3 2 3 3 4 3 1 2 3 2 2 2 4 2 4 1 1 2 2 3 3 2 1 1 1 2 2 4 2 5 6 9 13 12 13 7 4 5 6 7 7 7 7
5 21 31 30 21 11 3 4 3 2 2 4 2 3 2 1 4 2 2 2 2 1 2 1 0 2 2 2 2 2 2 2 3 3 2 2 2 4 5 5 5 3 6 12 13 11 13 6 6 5 6 5 5 6
20 22 34 31 13 7 4 1 1 2 5 2 3 2 1 2 2 0 2 2 3 3 3 3 2 3 4 3 4 3 2 3 2 3 3 4 4 5 6 7 6 5 3 4 14 9 10 6 3 3 4 5 4 4
33 36 32 24 9 4 5 2 2 2 2 4 3 3 2 3 3 2 2 1 1 3 3 3 5 4 3 4 2 1 1 1 2 4 4 4 4 5 5 5 4 6 4 3 7 5 7 6 3 3 4 4 4 4
29 21 25 8 4 3 3 5 4 5 3 3 4 4 4 4 4 4 3 2 2 4 5 5 5 4 5 5 5 4 4 3 4 4 5 5 5 2 4 5 5 5 6 6 5 4 2 4 4 2 3 3 3 3
10 24 5 3 3 1 2 4 4 2 3 2 3 4 2 2 2 3 1 2 5 8 5 4 4 4 4 5 6 7 7 6 5 4 6 5 5 4 4 4 4 4 4 4 4 3 3 5 5 2 1 2 3 3
19 6 4 3 4 4 4 2 3 3 3 3 3 3 2 3 4 3 3 5 5 5 5 5 6 6 6 6 6 6 6 6 4 5 6 5 5 4 4 5 4 5 5 6 5 5 4 5 4 3 3 3 3 3
12 5 6 6 5 5 3 3 3 3 2 2 4 3 3 4 2 2 5 4 4 3 4 6 3 4 4 5 4 5 5 5 5 5 5 5 5 5 5 5 5 5 5 4 5 5 4 4 4 2 2 2 2 3
8 6 8 7 4 7 6 5 5 3 4 4 5 2 3 2 2 4 4 3 3 5 5 4 4 4 5 4 3 4 5 3 4 5 4 4 4 3 3 4 5 6 4 4 4 4 5 4 1 1 3 2 5 7
6 7 10 8 6 6 7 7 6 5 4 3 5 4 3 3 3 8 4 4 4 4 5 6 5 4 4 5 3 2 2 2 1 1 4 3 3 3 4 5 4 5 5 5 5 6 7 6 4 5 6 7 7 7
7 7 5 4 6 8 5 4 4 4 5 6 5 4 4 4 8 7 3 4 4 3 3 4 5 5 5 3 2 2 3 3 4 4 3 3 4 4 4 5 6 5 5 6 5 6 7 6 6 6 7 6 7 5
4 8 11 11 5 3 7 5 7 8 6 4 6 7 10 10 8 5 5 4 5 4 4 4 4 4 4 4 5 4 4 5 5 6 4 4 5 5 6 5 6 8 6 4 4 5 5 6 5 5 6 8 5 4
3 7 13 13 4 3 4 6 7 5 6 6 9 5 6 4 4 3 3 4 4 4 4 4 5 4 5 4 5 5 5 5 4 8 12 11 10 8 3 5 5 5 3 5 6 6 7 6 7 6 8 6 4 4
8 6 6 4 6 5 4 5 5 4 2 4 4 1 1 2 4 3 3 3 3 5 7 6 6 6 8 7 9 6 3 4 6 8 12 14 13 5 3 4 4 3 2 3 5 5 1 1 2 2 1 3 4 5
11 4 4 4 3 1 3 4 3 3 2 1 1 3 3 3 4 2 4 4 4 3 4 7 7 6 6 7 7 8 10 4 8 12 11 9 6 5 5 5 5 4 4 4 5 8 7 6 5 7 8 8 7 6
4 5 6 5 4 3 3 3 2 2 1 0 2 1 3 3 4 4 4 5 7 10 9 6 7 9 6 6 4 5 9 5 3 4 7 7 8 8 7 6 3 4 6 6 6 7 8 10 7 6 6 8 8 8
4 5 5 6 4 5 3 4 2 3 2 3 4 4 5 5 8 5 2 3 6 6 7 3 2 4 3 5 6 3 4 4 6 7 9 9 8 7 6 5 5 5 8 9 7 7 10 12 11 13 11 10 11 10
Wind_Direction
155 154 148 145 137 130 117 101 81 63 55 47 37 29 25 25 23 46 247 7 95 99 32 49 39 47 41 20 83 275 30 348 11 31 33 316 15 331 20 311 355 348 354 359 341 280 336 355 328 32 319 304 316 312
153 152 147 144 141 132 121 106 91 74 57 48 39 32 29 27 15 18 47 345 25 82 126 88 67 50 59 62 76 8 131 37 59 53 15 349 348 349 353 295 30 27 301 271 109 283 358 312 288 292 324 326 322 320
150 150 147 145 143 132 126 114 97 83 65 50 43 37 30 26 22 42 75 358 52 87 57 48 50 68 57 60 37 114 29 12 48 144 155 257 308 62 331 294 12 316 270 222 315 269 345 306 298 304 326 323 314 297
149 149 148 146 142 136 129 118 105 91 76 56 43 37 33 27 17 47 66 343 54 64 103 299 193 67 93 68 61 52 97 30 141 55 56 351 301 16 282 262 293 238 308 356 290 23 337 296 309 317 317 315 314 325
148 147 148 146 142 138 130 122 112 99 87 67 49 36 28 25 9 64 62 33 25 95 124 139 110 136 126 101 98 96 41 46 39 19 6 245 253 18 296 266 3 331 343 343 256 328 277 277 298 303 307 304 295 306
147 146 146 146 142 137 132 124 115 104 92 76 54 34 11 344 341 66 42 3 8 10 90 120 166 148 146 141 141 91 72 54 58 20 320 302 317 8 311 295 162 61 10 338 314 316 300 289 293 290 300 311 293 308
147 144 146 143 141 138 133 127 119 111 100 80 61 38 22 50 59 64 127 255 328 333 59 89 93 202 163 151 154 73 63 71 86 301 243 252 284 90 257 253 342 331 323 316 311 305 291 286 287 307 304 302 291 286
144 145 148 143 141 138 135 131 123 118 112 82 60 53 48 66 114 51 3 338 339 24 45 80 105 98 184 202 132 117 93 191 164 248 285 259 305 133 260 286 302 301 305 301 294 309 286 289 293 292 299 304 355 108
152 150 145 148 144 141 138 134 130 128 124 95 13 334 168 21 39 7 297 315 285 100 72 22 124 197 201 227 114 66 155 52 139 245 266 46 327 342 297 323 320 319 303 284 287 279 278 274 282 292 332 342 44 62
151 151 150 149 145 144 140 138 135 133 130 343 319 54 40 15 261 320 346 22 12 341 6 331 23 84 62 4 355 110 181 213 222 199 83 79 277 289 344 321 328 317 309 290 271 288 274 305 277 329 323 319 127 64
153 151 149 151 147 144 141 141 141 130 64 2 67 77 146 178 342 37 36 65 315 24 260 64 62 100 360 62 318 26 230 248 11 238 104 299 319 339 343 340 333 334 337 331 231 230 251 265 319 310 322 325 77 97
151 150 150 152 147 146 146 147 164 196 108 135 119 138 111 35 26 78 71 10 319 128 200 150 193 147 103 90 59 302 162 16 262 182 66 5 282 338 338 348 343 346 344 349 24 20 15 13 342 351 337 1 62 84
152 150 150 151 149 149 151 165 187 136 115 77 51 51 70 336 43 103 144 274 119 118 175 146 194 151 34 67 37 292 65 242 284 58 71 223 292 323 342 350 349 348 352 5 5 8 17 27 23 26 6 3 16 89
150 149 150 151 150 153 161 174 188 293 336 93 117 51 141 273 258 206 191 151 181 113 173 83 43 123 168 78 173 47 269 327 8 53 268 252 241 300 321 344 2 355 353 358 1 1 6 13 20 18 22 29 43 71
149 149 151 151 152 156 162 157 175 304 343 117 125 133 204 236 225 136 220 72 90 116 85 32 345 111 246 86 251 13 351 312 85 211 230 238 209 260 320 337 21 359 353 348 353 355 357 355 19 18 18 34 54 64
144 139 150 151 150 149 135 102 32 9 3 319 252 338 250 118 52 72 90 106 84 116 109 56 13 38 225 190 167 203 265 65 223 163 255 227 191 229 262 332 360 357 340 333 346 346 352 358 14 5 26 34 37 77
131 93 147 145 138 129 85 79 53 44 40 335 267 272 283 122 146 270 121 176 68 28 84 91 34 233 232 92 252 212 162 187 150 312 257 343 81 298 307 207 8 357 347 334 336 350 333 349 18 17 35 26 23 23
101 138 139 135 130 99 45 29 87 127 183 242 274 260 285 99 164 221 107 126 101 98 62 160 170 333 296 228 215 77 359 183 209 228 233 105 16 356 12 5 283 61 347 328 329 338 344 4 36 23 18 35 34 10
140 138 139 144 128 103 100 51 255 216 220 220 244 291 213 255 301 63 79 31 101 96 66 350 242 213 226 289 307 318 23 51 2 338 336 342 4 23 1 338 327 307 206 312 317 328 330 340 32 42 12 20 16 11
139 142 146 141 123 100 109 109 216 239 234 208 135 205 247 220 242 249 234 212 224 153 157 208 219 211 208 275 311 334 316 7 16 343 320 316 317 324 315 313 329 330 338 300 252 298 325 325 351 38 33 26 18 359
131 150 143 125 48 65 142 152 196 211 199 160 177 188 210 214 219 198 204 194 222 223 239 217 226 230 229 249 276 288 299 302 277 252 264 280 269 271 293 292 294 295 300 309 266 224 316 302 301 3 51 11 348 338
116 128 81 36 98 143 222 226 188 197 107 208 160 200 172 165 213 220 192 211 232 233 226 229 229 229 228 229 234 231 231 233 248 266 271 263 273 264 256 241 241 264 268 268 266 244 252 278 293 287 18 313 344 46
107 89 89 139 128 165 209 186 140 173 147 222 122 139 185 195 216 153 222 214 232 201 219 231 238 234 230 238 243 245 235 239 250 252 257 255 262 262 266 265 247 245 271 278 259 262 246 253 255 262 312 360 34 346
108 103 140 155 167 155 155 174 163 151 166 176 155 199 200 179 176 181 242 227 224 228 223 227 215 234 240 241 235 237 233 220 232 241 234 231 251 255 231 235 231 230 216 253 266 260 255 254 281 303 71 349 329 299
113 163 153 157 170 139 153 152 158 136 160 190 150 186 231 126 136 252 238 243 199 226 219 208 220 220 213 218 223 243 255 213 233 246 258 228 242 272 271 245 239 234 230 237 272 270 271 262 237 220 268 240 279 285
131 178 173 151 153 146 161 139 157 156 137 147 189 191 130 133 179 249 232 212 224 202 204 206 204 217 224 195 175 155 260 255 166 263 284 321 309 274 271 255 249 270 236 217 206 231 238 236 228 238 251 259 255 259
134 173 186 172 166 134 105 109 124 133 161 179 185 141 128 181 223 245 237 218 182 214 183 206 194 193 168 154 174 235 265 272 244 230 252 279 275 267 254 248 261 241 251 237 226 208 228 236 243 243 249 254 247 235
146 152 155 159 149 134 119 129 154 173 166 189 148 180 183 197 221 224 203 209 181 186 198 211 195 174 184 203 203 206 237 250 267 276 284 266 246 246 244 244 248 257 257 252 203 194 203 215 214 223 230 245 237 212
129 142 142 146 131 136 165 165 185 176 162 165 180 193 215 215 209 194 223 169 165 158 195 216 244 228 245 246 232 217 201 196 222 255 262 271 280 268 256 274 270 267 270 262 258 225 227 210 215 216 227 229 223 202
144 149 123 143 137 179 225 153 153 138 166 171 188 273 288 287 232 178 118 117 145 201 215 207 210 204 230 234 253 262 231 205 198 230 259 263 263 264 226 252 266 277 294 293 290 286 279 202 106 108 186 233 228 240
138 101 80 101 146 172 154 102 65 79 113 212 26 162 210 286 315 245 165 189 205 236 227 238 235 220 227 240 246 264 272 225 230 243 248 262 269 264 251 240 231 231 233 235 245 255 255 246 231 236 249 251 238 233
114 143 129 125 121 118 72 80 107 112 164 245 250 155 351 349 265 267 217 178 230 252 251 239 246 253 227 224 224 234 244 257 227 224 235 248 258 262 272 272 255 215 226 223 219 231 236 235 236 226 232 244 249 247
111 113 109 112 127 154 141 120 140 130 192 233 237 198 195 185 236 247 277 191 215 225 241 243 284 283 243 245 245 235 235 247 250 245 246 244 245 259 258 238 226 227 247 249 236 228 238 243 250 255 248 244 255 254